Главная страница
METAR-TAF:

METAR-TAF

Аэропорты :

Hemavan, Швеция

широта: 65-48-22N, долгота: 015-04-58E, высота над уровнем моря: 458 м

Текущие метеонаблюдения

Эта сводка был подготовлена 39 минут назад, в 21:50 UTC
Штиль
Температура 6°C
Влажность 81%
Давление 1015 hPa
Видимость 10 км и более

METAR: ESUT 192150Z AUTO 00000KT 9999 OVC031/// 06/03 Q1015

Время: 00:29 (22:29 UTC)


TAF: отсутствует

Метеонаблюдения и прогнозы для более 4000 аэропортов (сводки METAR и TAF).

Имеющиеся станции представлены на карте желтыми и красными точками.

Чтобы увидеть название станции, наведите на нее мышь.

Затем щелкните, чтобы увидеть метеонаблюдения и метеопрогнозы.

Управление картой: чтобы увеличить масштаб, щелкните зеленые кнопки с черным крестиком; чтобы уменьшить масштаб, щелкните зеленую кнопку с тире; для просмотра соседних карт щелкайте зеленые стрелки.


METAR-TAF: